Regional Weather Roundup
Issued by NWS

Home | Current Version | Previous Version | Graphics & Text | Print | Product List | Glossary On
Versions: 1 2 3 4 5 6 7 8 9 10 11 12 13 14 15 16 17 18 19 20 21 22 23 24 25 26 27 28 29 30 31 32 33 34 35 36 37 38 39 40 41 42 43 44 45 46 47 48 49 50
000
ASUS44 KMEG 192210
RWRTN
TENNESSEE HOURLY STATE WEATHER ROUNDUP
NATIONAL WEATHER SERVICE MEMPHIS TN
500 PM CDT FRI SEP 19 2014

TNZ002-004-019-021-049-052-054-088>092-192300-
WEST TENNESSEE

CITY           SKY/WX    TMP DP  RH WIND       PRES   REMARKS
MEMPHIS INTL   MOSUNNY   84  65  52 S5        29.99S
NWS MEMPHIS      N/A    N/A N/A N/A MISG        N/A
JACKSON        SUNNY     82  67  60 CALM      30.00S
DYERSBURG      MOSUNNY   84  61  45 CALM      30.01S
UNION CITY     SUNNY     81  64  57 SE3       30.00S
PARIS          PTSUNNY   81  63  54 VRB3      30.02S
HUNTINGDON     SUNNY     82  63  52 SW5       30.01S
LEXINGTON      SUNNY     84  64  51 CALM      30.00S
SAVANNAH       MOSUNNY   84  72  65 CALM      30.00S
$$

TNZ008-025-027-028-033-062-065-066-192300-
NORTH MIDDLE TENNESSEE

CITY           SKY/WX    TMP DP  RH WIND       PRES   REMARKS
NASHVILLE      MOSUNNY   85  62  46 NE8       30.02S
DICKSON        SUNNY     82  63  51 CALM      30.02S
PORTLAND       MOSUNNY   81  61  50 E5        30.03S
CLARKSVILLE    SUNNY     82  61  48 S3        30.02S
LEBANON        PTSUNNY   85  62  45 CALM      30.01S
SMYRNA         PTSUNNY   85  63  47 N6        30.02S
COOKEVILLE     SUNNY     84  64  51 SW3       30.05S
LIVINGSTON     SUNNY     80  60  50 CALM      30.07
GALLATIN       SUNNY     85  63  47 E3        30.04S
CROSSVILLE     MOSUNNY   78  60  53 SE5       30.10S
$$

TNZ061-075-076-078-094-096-097-192300-
SOUTH MIDDLE TENNESSEE

CITY           SKY/WX    TMP DP  RH WIND       PRES   REMARKS
LEWISBURG      SUNNY     85  65  51 NE5       30.01S
FAYETTEVILLE   SUNNY     84  61  45 S3        30.03S
TULLAHOMA      SUNNY     82  63  51 S6        30.05S
WINCHESTER     MOSUNNY   84  64  51 S6        30.04R
MCMINNVILLE    SUNNY     82  70  65 CALM      30.05S
COLUMBIA       SUNNY     84  64  51 CALM      30.00S
SHELBYVILLE    SUNNY     86  64  48 SE5       30.03F
$$

TNZ017-018-042-046-047-192300-
NORTHEAST TENNESSEE

CITY           SKY/WX    TMP DP  RH WIND       PRES   REMARKS
TRI CITIES     MOSUNNY   76  57  51 SE14G22   30.12R
ELIZABETHTON   CLEAR     72  57  60 E10       30.16R
$$

TNZ012-013-036-069-073-074-192300-
CENTRAL EAST TENNESSEE

CITY           SKY/WX    TMP DP  RH WIND       PRES   REMARKS
KNOXVILLE      NOT AVBL
OAK RIDGE      SUNNY     84  61  45 CALM      30.07S
GATLINBURG     MOCLDY    79  63  57 CALM      30.06R
MORRISTOWN     CLEAR     79  61  53 NE5       30.09R
$$

TNZ083-085-099-192300-
SOUTHEAST TENNESSEE

CITY           SKY/WX    TMP DP  RH WIND       PRES   REMARKS
CHATTANOOGA    PTSUNNY   83  63  50 SE5       30.04S
$$

SKY/WX REPORTED AS FAIR MEANS FEW OR NO CLOUDS BELOW
12 THOUSAND FEET.




USA.gov is the U.S. government's official web portal to all federal, state and local government web resources and services.